Orbital Elements
Epoch 2013 Mar. 9.0 TT = JDT 2456360.5
T 2013 Feb. 22.42719 TT MPC
q 2.7290373 (2000.0) P Q
n 0.11749195 Peri. 30.11315 +0.82395916 -0.56652494
a 4.1285478 Node 4.45001 +0.48458288 +0.69361871
e 0.3389837 Incl. 8.79669 +0.29371881 +0.44490737
P 8.39
From 108 observations 1987 Oct. 18-2012 Sept. 17, mean residual 0".8.
Nongravitational parameters Y1 = +0.12, Y2 = -0.0047.
|